Location: Fxbg
(38.3018°N, 77.4708°W)
Time: 18:17:05
(UTC-04:00)

ISS - Visible Passes

Search period start: 21 October 2019 00:00
Search period end: 31 October 2019 00:00
Orbit: 411 x 421 km, 51.6° (Epoch: 21 October)

Date Brightness Start Highest point End Pass type
(mag) Time Alt. Az. Time Alt. Az. Time Alt. Az.
23 Oct -1.0 06:11:59 10° S 06:14:26 19° SE 06:16:52 10° E visible
24 Oct -0.5 05:25:31 10° SE 05:26:02 10° SE 05:26:33 10° ESE visible
24 Oct -3.8 06:58:57 10° SW 07:02:19 75° NW 07:05:41 10° NE visible
25 Oct -3.2 06:11:22 17° SSW 06:13:44 58° SE 06:17:03 10° ENE visible
26 Oct -2.0 05:25:34 30° ESE 05:25:34 30° ESE 05:28:13 10° ENE visible
26 Oct -2.7 06:58:57 10° W 07:01:56 29° NNW 07:04:55 10° NNE visible
27 Oct -3.4 06:12:29 38° WNW 06:13:13 46° NW 06:16:29 10° NE visible
28 Oct -1.8 05:26:17 26° NE 05:26:17 26° NE 05:27:56 10° NE visible
28 Oct -1.7 06:59:36 10° WNW 07:01:43 16° NNW 07:03:51 10° NNE visible
29 Oct -2.2 06:12:52 21° NNW 06:12:52 21° NNW 06:15:32 10° NNE visible
30 Oct -1.0 05:26:26 14° NNE 05:26:26 14° NNE 05:27:07 10° NNE visible
30 Oct -1.3 07:01:04 10° NNW 07:01:38 10° NNW 07:02:14 10° N visible
